Naniwa Maru No.21 — JG5648 — position and weather

sailwx.info

Track history (hours):
 
Tides and Currents Weather Stations Pressure Air Temp Water Temp Dewpoint Dewpoint Depression Visibility Wind Speed Wind Dir Waves Ship Positions

Naniwa Maru No.21

Last reported at 2014-Nov-23 06:33 UTC. Time now 2014-Nov-23 07:34 UTC.
Position N 34°13' E 135°09'.

Length 71 m; draft 4 m.

Type: Tanker. MMSI: 431301595.

Date/timePositionNaut miles runAvg speedWind from/ knotsBaromVisibWave heightAir tempDewpointWater temp
2014-Nov-23 06:33N 34°13' E 135°09'0 0.0
2014-Nov-23 05:33N 34°13' E 135°09'0 0.0
2014-Nov-23 04:33N 34°13' E 135°09'0 0.0
2014-Nov-23 03:33N 34°13' E 135°09'0 0.0
2014-Nov-23 02:33N 34°13' E 135°09'0 0.1
2014-Nov-23 01:34N 34°13' E 135°08'1512.1
2014-Nov-23 00:21N 34°09' E 134°51'22711.4
2014-Nov-22 04:29N 33°46' E 130°20'910.1
2014-Nov-22 03:33N 33°37' E 130°23'0 0.3
2014-Nov-22 02:30N 33°36' E 130°23'0 0.0
2014-Nov-22 01:33N 33°36' E 130°23'0 0.0
2014-Nov-22 00:33N 33°36' E 130°23'0 0.0
2014-Nov-21 23:27N 33°36' E 130°23'1 1.5
2014-Nov-21 22:33N 33°37' E 130°22'0 0.0
2014-Nov-21 21:32N 33°37' E 130°22'0 0.0
2014-Nov-21 20:23N 33°37' E 130°22'0 0.0
2014-Nov-21 19:29N 33°37' E 130°22'0 0.0
2014-Nov-21 18:08N 33°37' E 130°22'0 0.1
2014-Nov-21 17:26N 33°37' E 130°22'0 0.0
2014-Nov-21 16:32N 33°37' E 130°22'0 0.0
2014-Nov-21 15:32N 33°37' E 130°22'0 0.0
2014-Nov-21 14:32N 33°37' E 130°22'0 0.0
2014-Nov-21 13:14N 33°37' E 130°22'5 7.3
2014-Nov-21 12:32N 33°40' E 130°17'236 8.4
2014-Nov-20 08:30N 34°08' E 134°59'7 1.2
2014-Nov-20 02:32N 34°07' E 135°08'9 8.7
2014-Nov-20 01:33N 34°08' E 134°57'23011.4
2014-Nov-19 05:24N 33°47' E 130°21'910.4
2014-Nov-19 04:33N 33°39' E 130°19'4 3.8
2014-Nov-19 03:32N 33°36' E 130°23'0 0.0
2014-Nov-19 02:32N 33°36' E 130°23'0 0.0
2014-Nov-19 01:32N 33°36' E 130°23'0 0.0
2014-Nov-19 00:32N 33°36' E 130°23'0 0.2
2014-Nov-18 23:32N 33°36' E 130°23'1 1.4
2014-Nov-18 22:32N 33°37' E 130°22'0 0.0
2014-Nov-18 21:29N 33°37' E 130°22'0 0.0
2014-Nov-18 19:26N 33°37' E 130°22'0 0.0
2014-Nov-18 18:32N 33°37' E 130°22'0 0.0
2014-Nov-18 17:14N 33°37' E 130°22'0 0.1
2014-Nov-18 16:23N 33°37' E 130°22'0 0.0
2014-Nov-18 15:29N 33°37' E 130°22'0 0.0
2014-Nov-18 14:26N 33°37' E 130°22'0 0.0
2014-Nov-18 13:32N 33°37' E 130°22'0 0.0
2014-Nov-18 12:29N 33°37' E 130°22'0 0.1
2014-Nov-18 11:09N 33°37' E 130°22'0 0.0
2014-Nov-18 10:29N 33°37' E 130°22'0 0.0
2014-Nov-18 09:05N 33°37' E 130°22'0 0.0
2014-Nov-18 08:11N 33°37' E 130°22'0 0.0
2014-Nov-18 07:20N 33°37' E 130°22'0 0.0
2014-Nov-18 06:23N 33°37' E 130°22'0 0.0
2014-Nov-18 05:32N 33°37' E 130°22'1 0.6
2014-Nov-18 04:33N 33°38' E 130°21'10 9.6
2014-Nov-18 03:32N 33°47' E 130°21'22911.4
2014-Nov-17 07:23N 34°08' E 134°56'9 8.9
2014-Nov-17 06:20N 34°08' E 135°07'0 0.0
2014-Nov-17 00:33N 34°07' E 135°07'23311.9
2014-Nov-16 05:04N 33°53' E 130°27'713.4
2014-Nov-16 04:31N 33°47' E 130°21'9 9.7
2014-Nov-16 03:33N 33°38' E 130°20'3 2.7
2014-Nov-16 02:33N 33°36' E 130°23'0 0.0
2014-Nov-16 01:20N 33°36' E 130°23'0 0.0
2014-Nov-16 00:33N 33°36' E 130°23'1 0.6
2014-Nov-15 23:32N 33°37' E 130°23'1 1.2
2014-Nov-15 22:24N 33°37' E 130°22'0 0.0
2014-Nov-15 21:24N 33°37' E 130°22'0 0.0
2014-Nov-15 20:10N 33°37' E 130°22'0 0.0
2014-Nov-15 19:09N 33°37' E 130°22'0 0.1
2014-Nov-15 18:30N 33°37' E 130°22'0 0.0
2014-Nov-15 17:09N 33°37' E 130°22'0 0.0
2014-Nov-15 16:31N 33°37' E 130°22'0 0.1
2014-Nov-15 15:30N 33°37' E 130°22'0 0.2
2014-Nov-15 14:33N 33°38' E 130°21'9 9.2
2014-Nov-15 13:32N 33°47' E 130°21'  
Track history (hours):
 
Tides and Currents Weather Stations Pressure Air Temp Water Temp Dewpoint Dewpoint Depression Visibility Wind Speed Wind Dir Waves Ship Positions

Naniwa Maru No.21

Last reported at 2014-Nov-23 06:33 UTC. Time now 2014-Nov-23 07:34 UTC.
Position N 34°13' E 135°09'.

Length 71 m; draft 4 m.

Type: Tanker. MMSI: 431301595.

Date/timePositionNaut miles runAvg speedWind from/ knotsBaromVisibWave heightAir tempDewpointWater temp
2014-Nov-23 06:33N 34°13' E 135°09'0 0.0
2014-Nov-23 05:33N 34°13' E 135°09'0 0.0
2014-Nov-23 04:33N 34°13' E 135°09'0 0.0
2014-Nov-23 03:33N 34°13' E 135°09'0 0.0
2014-Nov-23 02:33N 34°13' E 135°09'0 0.1
2014-Nov-23 01:34N 34°13' E 135°08'1512.1
2014-Nov-23 00:21N 34°09' E 134°51'22711.4
2014-Nov-22 04:29N 33°46' E 130°20'910.1
2014-Nov-22 03:33N 33°37' E 130°23'0 0.3
2014-Nov-22 02:30N 33°36' E 130°23'0 0.0
2014-Nov-22 01:33N 33°36' E 130°23'0 0.0
2014-Nov-22 00:33N 33°36' E 130°23'0 0.0
2014-Nov-21 23:27N 33°36' E 130°23'1 1.5
2014-Nov-21 22:33N 33°37' E 130°22'0 0.0
2014-Nov-21 21:32N 33°37' E 130°22'0 0.0
2014-Nov-21 20:23N 33°37' E 130°22'0 0.0
2014-Nov-21 19:29N 33°37' E 130°22'0 0.0
2014-Nov-21 18:08N 33°37' E 130°22'0 0.1
2014-Nov-21 17:26N 33°37' E 130°22'0 0.0
2014-Nov-21 16:32N 33°37' E 130°22'0 0.0
2014-Nov-21 15:32N 33°37' E 130°22'0 0.0
2014-Nov-21 14:32N 33°37' E 130°22'0 0.0
2014-Nov-21 13:14N 33°37' E 130°22'5 7.3
2014-Nov-21 12:32N 33°40' E 130°17'236 8.4
2014-Nov-20 08:30N 34°08' E 134°59'7 1.2
2014-Nov-20 02:32N 34°07' E 135°08'9 8.7
2014-Nov-20 01:33N 34°08' E 134°57'23011.4
2014-Nov-19 05:24N 33°47' E 130°21'910.4
2014-Nov-19 04:33N 33°39' E 130°19'4 3.8
2014-Nov-19 03:32N 33°36' E 130°23'0 0.0
2014-Nov-19 02:32N 33°36' E 130°23'0 0.0
2014-Nov-19 01:32N 33°36' E 130°23'0 0.0
2014-Nov-19 00:32N 33°36' E 130°23'0 0.2
2014-Nov-18 23:32N 33°36' E 130°23'1 1.4
2014-Nov-18 22:32N 33°37' E 130°22'0 0.0
2014-Nov-18 21:29N 33°37' E 130°22'0 0.0
2014-Nov-18 19:26N 33°37' E 130°22'0 0.0
2014-Nov-18 18:32N 33°37' E 130°22'0 0.0
2014-Nov-18 17:14N 33°37' E 130°22'0 0.1
2014-Nov-18 16:23N 33°37' E 130°22'0 0.0
2014-Nov-18 15:29N 33°37' E 130°22'0 0.0
2014-Nov-18 14:26N 33°37' E 130°22'0 0.0
2014-Nov-18 13:32N 33°37' E 130°22'0 0.0
2014-Nov-18 12:29N 33°37' E 130°22'0 0.1
2014-Nov-18 11:09N 33°37' E 130°22'0 0.0
2014-Nov-18 10:29N 33°37' E 130°22'0 0.0
2014-Nov-18 09:05N 33°37' E 130°22'0 0.0
2014-Nov-18 08:11N 33°37' E 130°22'0 0.0
2014-Nov-18 07:20N 33°37' E 130°22'0 0.0
2014-Nov-18 06:23N 33°37' E 130°22'0 0.0
2014-Nov-18 05:32N 33°37' E 130°22'1 0.6
2014-Nov-18 04:33N 33°38' E 130°21'10 9.6
2014-Nov-18 03:32N 33°47' E 130°21'22911.4
2014-Nov-17 07:23N 34°08' E 134°56'9 8.9
2014-Nov-17 06:20N 34°08' E 135°07'0 0.0
2014-Nov-17 00:33N 34°07' E 135°07'23311.9
2014-Nov-16 05:04N 33°53' E 130°27'713.4
2014-Nov-16 04:31N 33°47' E 130°21'9 9.7
2014-Nov-16 03:33N 33°38' E 130°20'3 2.7
2014-Nov-16 02:33N 33°36' E 130°23'0 0.0
2014-Nov-16 01:20N 33°36' E 130°23'0 0.0
2014-Nov-16 00:33N 33°36' E 130°23'1 0.6
2014-Nov-15 23:32N 33°37' E 130°23'1 1.2
2014-Nov-15 22:24N 33°37' E 130°22'0 0.0
2014-Nov-15 21:24N 33°37' E 130°22'0 0.0
2014-Nov-15 20:10N 33°37' E 130°22'0 0.0
2014-Nov-15 19:09N 33°37' E 130°22'0 0.1
2014-Nov-15 18:30N 33°37' E 130°22'0 0.0
2014-Nov-15 17:09N 33°37' E 130°22'0 0.0
2014-Nov-15 16:31N 33°37' E 130°22'0 0.1
2014-Nov-15 15:30N 33°37' E 130°22'0 0.2
2014-Nov-15 14:33N 33°38' E 130°21'9 9.2
2014-Nov-15 13:32N 33°47' E 130°21'  

Dump ship's entire track history